When you browse on this site, cookies collect data to enhance your experience and personalize the content and advertising you see.
Visit our Privacy Policy to learn more. By continuing to use the site, you agree to this use of cookies and data.
  • In Czech Republic
  • List of Countries
  • For 7 days
  • Water Temperature
  • Satellite Maps
  • Weather Map
  • Weather Widgets
  • user-avatar
    Login

    Hourly Weather Sulukta

    Today, 20 March, Wednesday

    Time Temperature Precipitation Wind Pressure Humidity
    00:00 +7°C° 0 mm 1 mps 646 mmHg 68%
    01:00 +6°C° 0 mm 1 mps 646 mmHg 69%
    02:00 +6°C° 0 mm 1 mps 646 mmHg 70%
    03:00 +6°C° 0 mm 1 mps 646 mmHg 68%
    04:00 +6°C° 0 mm 1 mps 646 mmHg 66%
    05:00 +6°C° 0 mm 1 mps 646 mmHg 64%
    06:00 +6°C° 0 mm 1 mps 647 mmHg 61%
    07:00 +7°C° 0 mm 1 mps 647 mmHg 57%
    08:00 +8°C° 0 mm 1 mps 647 mmHg 54%
    09:00 +9°C° 0 mm 1 mps 647 mmHg 54%
    10:00 +9°C° 0 mm 1 mps 647 mmHg 54%
    11:00 +10°C° 0 mm 1 mps 647 mmHg 54%
    12:00 +10°C° 0 mm 2 mps 647 mmHg 53%
    13:00 +10°C° 0 mm 2 mps 647 mmHg 53%
    14:00 +12°C° 0 mm 2 mps 647 mmHg 53%
    15:00 +12°C° 0.1 mm 2 mps 647 mmHg 54%
    16:00 +10°C° 0.1 mm 2 mps 647 mmHg 55%
    17:00 +10°C° 0.1 mm 3 mps 647 mmHg 55%
    18:00 +10°C° 0.1 mm 2 mps 648 mmHg 60%
    19:00 +10°C° 0.1 mm 1 mps 648 mmHg 64%
    20:00 +9°C° 0.1 mm 1 mps 648 mmHg 68%
    21:00 +9°C° 0 mm 1 mps 648 mmHg 68%
    22:00 +8°C° 0 mm 1 mps 648 mmHg 69%
    23:00 +8°C° 0 mm 1 mps 648 mmHg 69%

    Tomorrow, 21 March, Thursday

    Time Temperature Precipitation Wind Pressure Humidity
    00:00 +8°C° 0 mm 1 mps 648 mmHg 69%
    01:00 +7°C° 0 mm 1 mps 648 mmHg 68%
    02:00 +7°C° 0 mm 1 mps 648 mmHg 68%
    03:00 +6°C° 0 mm 1 mps 648 mmHg 69%
    04:00 +6°C° 0 mm 1 mps 648 mmHg 71%
    05:00 +5°C° 0 mm 1 mps 648 mmHg 72%
    06:00 +6°C° 0 mm 1 mps 648 mmHg 69%
    07:00 +6°C° 0 mm 1 mps 648 mmHg 67%
    08:00 +7°C° 0 mm 1 mps 649 mmHg 64%
    09:00 +8°C° 0 mm 1 mps 649 mmHg 64%
    10:00 +9°C° 0 mm 1 mps 649 mmHg 64%
    11:00 +9°C° 0 mm 2 mps 649 mmHg 64%
    12:00 +9°C° 0.1 mm 2 mps 649 mmHg 63%
    13:00 +10°C° 0.1 mm 2 mps 649 mmHg 62%
    14:00 +10°C° 0.1 mm 2 mps 649 mmHg 61%
    15:00 +10°C° 0.8 mm 2 mps 649 mmHg 62%
    16:00 +10°C° 0.8 mm 2 mps 649 mmHg 63%
    17:00 +10°C° 0.8 mm 2 mps 649 mmHg 63%
    18:00 +9°C° 0.9 mm 2 mps 649 mmHg 66%
    19:00 +10°C° 0.9 mm 1 mps 649 mmHg 68%
    20:00 +9°C° 0.9 mm 1 mps 650 mmHg 70%
    21:00 +9°C° 0.4 mm 1 mps 650 mmHg 67%
    22:00 +8°C° 0.4 mm 1 mps 650 mmHg 64%
    23:00 +7°C° 0.4 mm 2 mps 650 mmHg 61%

    Day after tomorrow, 22 March, Friday

    Time Temperature Precipitation Wind Pressure Humidity
    00:00 +7°C° 0 mm 2 mps 649 mmHg 57%
    01:00 +6°C° 0 mm 2 mps 649 mmHg 54%
    02:00 +6°C° 0 mm 2 mps 649 mmHg 51%
    03:00 +6°C° 0 mm 2 mps 649 mmHg 50%
    04:00 +6°C° 0 mm 2 mps 649 mmHg 49%
    05:00 +4°C° 0 mm 3 mps 648 mmHg 48%
    06:00 +5°C° 0 mm 3 mps 649 mmHg 46%
    07:00 +7°C° 0 mm 3 mps 649 mmHg 44%
    08:00 +7°C° 0 mm 3 mps 649 mmHg 42%
    09:00 +9°C° 0 mm 3 mps 649 mmHg 42%
    10:00 +10°C° 0 mm 3 mps 650 mmHg 42%
    11:00 +11°C° 0 mm 3 mps 650 mmHg 42%
    12:00 +11°C° 0 mm 3 mps 649 mmHg 43%
    13:00 +11°C° 0 mm 3 mps 649 mmHg 45%
    14:00 +11°C° 0 mm 3 mps 648 mmHg 47%
    15:00 +12°C° 0 mm 2 mps 648 mmHg 48%
    16:00 +12°C° 0 mm 2 mps 648 mmHg 49%
    17:00 +12°C° 0 mm 2 mps 648 mmHg 49%
    18:00 +10°C° 0 mm 2 mps 648 mmHg 52%
    19:00 +10°C° 0 mm 1 mps 647 mmHg 54%
    20:00 +9°C° 0 mm 1 mps 647 mmHg 56%
    21:00 +8°C° 0 mm 2 mps 647 mmHg 52%
    22:00 +8°C° 0 mm 2 mps 647 mmHg 47%
    23:00 +8°C° 0 mm 2 mps 647 mmHg 43%

    23 March, Saturday

    Time Temperature Precipitation Wind Pressure Humidity
    00:00 +7°C° 0 mm 2 mps 646 mmHg 43%
    01:00 +7°C° 0 mm 2 mps 646 mmHg 43%
    02:00 +7°C° 0 mm 2 mps 646 mmHg 43%
    03:00 +7°C° 0 mm 2 mps 646 mmHg 44%
    04:00 +7°C° 0 mm 2 mps 646 mmHg 46%
    05:00 +7°C° 0 mm 1 mps 646 mmHg 48%
    06:00 +8°C° 0 mm 1 mps 646 mmHg 49%
    07:00 +8°C° 0 mm 1 mps 646 mmHg 50%
    08:00 +9°C° 0 mm 1 mps 647 mmHg 51%
    09:00 +10°C° 0 mm 1 mps 647 mmHg 47%
    10:00 +10°C° 0 mm 2 mps 648 mmHg 44%
    11:00 +12°C° 0 mm 2 mps 648 mmHg 40%
    12:00 +12°C° 0 mm 2 mps 648 mmHg 40%
    13:00 +12°C° 0 mm 3 mps 649 mmHg 40%
    14:00 +12°C° 0 mm 4 mps 649 mmHg 40%
    15:00 +11°C° 0.9 mm 4 mps 648 mmHg 55%
    16:00 +9°C° 0.9 mm 3 mps 648 mmHg 70%
    17:00 +7°C° 0.9 mm 3 mps 647 mmHg 85%
    18:00 +7°C° 0.7 mm 3 mps 648 mmHg 86%
    19:00 +6°C° 0.7 mm 2 mps 648 mmHg 86%
    20:00 +6°C° 0.7 mm 2 mps 648 mmHg 87%
    21:00 +6°C° 0.1 mm 2 mps 649 mmHg 86%
    22:00 +5°C° 0.1 mm 2 mps 649 mmHg 86%
    23:00 +5°C° 0.1 mm 2 mps 649 mmHg 85%

    24 March, Sunday

    Time Temperature Precipitation Wind Pressure Humidity
    00:00 +5°C° 0.1 mm 2 mps 649 mmHg 85%
    01:00 +5°C° 0.1 mm 2 mps 649 mmHg 84%
    02:00 +5°C° 0.1 mm 1 mps 649 mmHg 84%
    03:00 +5°C° 0 mm 1 mps 649 mmHg 83%
    04:00 +5°C° 0 mm 1 mps 649 mmHg 81%
    05:00 +5°C° 0 mm 1 mps 648 mmHg 80%
    06:00 +5°C° 0 mm 1 mps 649 mmHg 74%
    07:00 +6°C° 0 mm 1 mps 649 mmHg 68%
    08:00 +7°C° 0 mm 1 mps 649 mmHg 63%
    09:00 +7°C° 0 mm 2 mps 649 mmHg 58%
    10:00 +8°C° 0 mm 2 mps 649 mmHg 54%
    11:00 +10°C° 0 mm 3 mps 649 mmHg 50%
    12:00 +11°C° 0 mm 3 mps 649 mmHg 48%
    13:00 +11°C° 0 mm 3 mps 648 mmHg 47%
    14:00 +12°C° 0 mm 4 mps 648 mmHg 45%
    15:00 +12°C° 0 mm 3 mps 648 mmHg 46%
    16:00 +12°C° 0 mm 3 mps 648 mmHg 46%
    17:00 +12°C° 0 mm 3 mps 647 mmHg 46%
    18:00 +11°C° 0 mm 3 mps 647 mmHg 49%
    19:00 +10°C° 0 mm 2 mps 647 mmHg 52%
    20:00 +9°C° 0 mm 2 mps 647 mmHg 55%
    21:00 +8°C° 0 mm 2 mps 646 mmHg 53%
    22:00 +8°C° 0 mm 3 mps 646 mmHg 51%
    23:00 +8°C° 0 mm 3 mps 645 mmHg 49%

    25 March, Monday

    Time Temperature Precipitation Wind Pressure Humidity
    00:00 +8°C° 0 mm 2 mps 645 mmHg 50%
    01:00 +8°C° 0 mm 2 mps 645 mmHg 50%
    02:00 +8°C° 0 mm 2 mps 645 mmHg 50%
    03:00 +7°C° 0 mm 2 mps 645 mmHg 58%
    04:00 +7°C° 0 mm 3 mps 645 mmHg 67%
    05:00 +5°C° 0 mm 3 mps 646 mmHg 75%
    06:00 +5°C° 0.1 mm 3 mps 646 mmHg 78%
    07:00 +5°C° 0.1 mm 3 mps 647 mmHg 81%
    08:00 +5°C° 0.1 mm 3 mps 647 mmHg 85%
    09:00 +5°C° 0.1 mm 3 mps 647 mmHg 83%
    10:00 +5°C° 0.1 mm 3 mps 648 mmHg 82%
    11:00 +7°C° 0.1 mm 3 mps 648 mmHg 81%
    12:00 +7°C° 0 mm 2 mps 648 mmHg 78%
    13:00 +8°C° 0 mm 2 mps 648 mmHg 74%
    14:00 +9°C° 0 mm 2 mps 647 mmHg 71%
    15:00 +9°C° 0 mm 2 mps 647 mmHg 70%
    16:00 +9°C° 0 mm 2 mps 647 mmHg 69%
    17:00 +9°C° 0 mm 2 mps 647 mmHg 68%
    18:00 +9°C° 0 mm 2 mps 647 mmHg 71%
    19:00 +8°C° 0 mm 2 mps 647 mmHg 74%
    20:00 +8°C° 0 mm 1 mps 647 mmHg 76%
    21:00 +8°C° 0 mm 1 mps 647 mmHg 75%
    22:00 +7°C° 0 mm 1 mps 647 mmHg 73%
    23:00 +7°C° 0 mm 1 mps 647 mmHg 71%
    Show more